Weather History for Cahokia, IL

Change the Weather History Date:

Thursday, February 7, 2013

  Actual Average Record
Temperature  
Mean Temperature 45 °F -  
Max Temperature 55 °F 37 °F 68 °F (2009)
Min Temperature 35 °F 24 °F -6 °F (2014)
Degree Days  
Heating Degree Days 20    
Moisture  
Dew Point 38 °F    
Average Humidity 79    
Maximum Humidity 93    
Minimum Humidity 57    
Precipitation  
Precipitation 0.07 in - - ()
Sea Level Pressure  
Sea Level Pressure 29.96 in    
Wind  
Wind Speed 5 mph (WNW)    
Max Wind Speed 20 mph    
Max Gust Speed 26 mph    
Visibility 9 miles    
Events Rain    
Averages and records for this station are not official NWS values.
T = Trace of Precipitation, MM = Missing Value Source: NWS Daily Summary

Daily Weather History Graph

Daily Weather History Graph

Search for Another Location

Airport:

Trip Planner

Search our weather history database for the weather conditions in past years. The results will help you decide how hot, cold, wet, or windy it might be!

Date:

Astronomy

Feb. 07, 2013 Rise Set
Actual Time 7:00 AM CST 5:29 PM CST
Civil Twilight 6:32 AM CST 5:57 PM CST
Nautical Twilight 6:01 AM CST 6:28 PM CST
Astronomical Twilight 5:30 AM CST 6:59 PM CST
Moon 4:38 AM CST (2/7) 2:55 PM CST (2/7)
Length of Visible Light 11h 24m
Length of Day
10h 29m
Waning Crescent, 9% of the Moon is Illuminated
Feb 7
Waning Crescent
Feb 10
New
Feb 17
First Quarter
Feb 25
Full
Mar 4
Last Quarter

Hourly Weather History & Observations

Time (CST) Temp. Windchill Dew Point Humidity Pressure Visibility Wind Dir Wind Speed Gust Speed Precip Events Conditions
12:53 AM 37.9 °F 35.5 °F 30.9 °F 76% 30.06 in 10.0 mi ESE 3.5 mph - N/A   Clear
1:53 AM 36.0 °F - 30.0 °F 79% 30.06 in 10.0 mi Calm Calm - N/A   Clear
2:53 AM 35.1 °F - 28.9 °F 78% 30.06 in 10.0 mi Calm Calm - N/A   Mostly Cloudy
3:53 AM 36.0 °F 31.1 °F 30.0 °F 79% 30.03 in 10.0 mi SSE 5.8 mph - N/A   Partly Cloudy
4:53 AM 36.0 °F 33.3 °F 30.0 °F 79% 30.01 in 10.0 mi SSE 3.5 mph - N/A   Clear
5:53 AM 35.1 °F 32.2 °F 28.9 °F 78% 30.01 in 10.0 mi SSE 3.5 mph - N/A   Clear
6:53 AM 35.1 °F - 28.9 °F 78% 30.00 in 10.0 mi Calm Calm - N/A   Scattered Clouds
7:53 AM 36.0 °F 31.1 °F 30.0 °F 79% 29.99 in 8.0 mi SSE 5.8 mph - N/A   Mostly Cloudy
8:53 AM 41.0 °F 37.1 °F 32.0 °F 70% 29.98 in 10.0 mi SSE 5.8 mph - N/A   Mostly Cloudy
9:53 AM 46.0 °F 43.1 °F 33.1 °F 61% 29.96 in 10.0 mi SSE 5.8 mph - N/A   Overcast
10:53 AM 48.0 °F - 35.1 °F 61% 29.96 in 10.0 mi Calm Calm - N/A   Overcast
11:53 AM 48.9 °F - 36.0 °F 61% 29.93 in 10.0 mi Calm Calm - 0.00 in Rain Light Rain
12:53 PM 54.0 °F - 39.0 °F 57% 29.89 in 10.0 mi SE 5.8 mph - 0.00 in   Mostly Cloudy
1:53 PM 55.0 °F - 39.9 °F 57% 29.86 in 10.0 mi SE 5.8 mph - N/A   Overcast
2:53 PM 52.0 °F - 41.0 °F 66% 29.88 in 9.0 mi NNW 5.8 mph - N/A   Overcast
3:53 PM 50.0 °F - 44.1 °F 80% 29.88 in 6.0 mi WNW 3.5 mph - 0.02 in Rain Light Rain
4:20 PM 48.2 °F - 44.6 °F 87% 29.87 in 6.0 mi NW 3.5 mph - 0.02 in Rain Light Rain
4:29 PM 48.2 °F - 44.6 °F 87% 29.87 in 7.0 mi Calm Calm - 0.02 in   Overcast
4:38 PM 48.2 °F - 44.6 °F 87% 29.87 in 7.0 mi NW 4.6 mph - 0.02 in   Overcast
4:53 PM 48.0 °F - 46.0 °F 93% 29.87 in 6.0 mi Calm Calm - 0.02 in   Overcast
5:29 PM 48.2 °F - 46.4 °F 93% 29.89 in 5.0 mi WNW 5.8 mph - 0.01 in Rain Light Rain
5:53 PM 48.9 °F - 46.0 °F 90% 29.91 in 7.0 mi WNW 6.9 mph - 0.02 in Rain Light Rain
6:53 PM 48.0 °F - 45.0 °F 89% 29.93 in 6.0 mi NW 10.4 mph - 0.01 in   Overcast
7:53 PM 46.9 °F - 43.0 °F 86% 29.95 in 7.0 mi NW 16.1 mph - N/A   Overcast
8:16 PM 46.4 °F 39.0 °F 41.0 °F 81% 29.96 in 10.0 mi NW 19.6 mph 26.5 mph N/A   Overcast
8:53 PM 44.1 °F 36.2 °F 39.9 °F 85% 29.98 in 10.0 mi NNW 18.4 mph 24.2 mph N/A   Overcast
9:53 PM 44.1 °F 36.5 °F 39.0 °F 82% 30.00 in 10.0 mi NNW 17.3 mph - N/A   Overcast
10:24 PM 42.8 °F 34.5 °F 39.2 °F 87% 30.01 in 9.0 mi NW 18.4 mph 25.3 mph N/A   Overcast
10:53 PM 41.0 °F 32.2 °F 37.9 °F 89% 30.03 in 7.0 mi NW 18.4 mph - N/A   Overcast
11:23 PM 42.8 °F 35.1 °F 37.4 °F 81% 30.04 in 10.0 mi NNW 16.1 mph - N/A   Overcast
11:53 PM 41.0 °F 32.8 °F 37.0 °F 86% 30.05 in 9.0 mi NW 16.1 mph - N/A   Overcast